Weather in Ashburton

New Zealand     43°53′45″S   171°45′34″E
temp.,
°C
wind,
m/s
gust,
m/s
humid.,
%
clouds,
%
prec.,
mm/h
press.,
hPa
HPBL,
m
26 february, fri
fri2601:00+13e117895 0.0 1023138
04:00+13nw118099 0.0 1023132
07:00+13w118199 0.0 1022139
10:00+16ene127187 0.0 1022561
13:00+19e546087 0.0 1021805
16:00+21e655842 0.0 1019768
19:00+19e576838 0.0 1019565
22:00+14nne3693100 0.0 1020167
27 february, sat
sat2701:00+13n239699 0.0 102073
04:00+13n2296100 0.0 101852
07:00+13n1295100 0.0 101745
10:00+17ene1279100 0.0 1017392
13:00+22se4260100 0.0 1017668
16:00+21se4464100 0.0 1015414
19:00+18sse2277100 0.0 1015285
22:00+15w1295100 0.1 101633
28 february, sun
sun2801:00+14wsw229793 0.1 101635
04:00+14wsw119595 0.0 101546
07:00+14sse119590 0.0 101630
10:00+17ene128092 0.0 1016386
13:00+20ese326695 0.0 1016763
16:00+21se546482 0.0 1015620
19:00+20se236946 0.0 1014394
22:00+15nne47948 0.0 1016188
1 march, mon
mon101:00+14nne37966 0.0 1016212
04:00+16ne468961 0.0 1014424
07:00+16ne368780 0.0 1014356
10:00+18ne457699 0.0 1014587
13:00+24ene555195 0.0 10121109
16:00+25ene784697 0.0 10101188
19:00+21ne9135865 0.0 1008643
22:00+16nne8138358 0.0 1009260
2 march, tue
tue201:00+15nne598147 0.0 1008166
04:00+15n476799 0.0 1006110
07:00+16n356099 0.0 1005108
10:00+22n464496 0.0 1005527
13:00+28nnw452971 0.0 10042120
16:00+28nw882764 0.0 10011917
19:00+26nw892934 0.0 10011038
22:00+19nw612490 0.0 1002328